Regional Weather Roundup
Issued by NWS Green Bay, WI

Home | Current Version | Previous Version | Graphics & Text | Print | Product List | Glossary Off
Versions: 1 2 3 4 5 6 7 8 9 10 11 12 13 14 15 16 17 18 19 20 21 22 23 24 25 26 27 28 29 30 31 32 33 34 35 36 37 38 39 40 41 42 43 44 45 46 47 48 49 50

000
ASUS43 KGRB 231400
RWRGRB

NORTH-CENTRAL AND NORTHEAST WISCONSIN REGIONAL WEATHER ROUNDUP
NATIONAL WEATHER SERVICE GREEN BAY WI
900 AM CDT THU MAR 23 2017

WIZ005-009-010>012-018-019-231500-
NORTH CENTRAL WISCONSIN

CITY           SKY/WX    TMP DP  RH WIND       PRES   REMARKS
IRONWOOD       CLOUDY    29  24  82 S14G22    30.18F
MANITOWISH WTR NOT AVBL
ARBOR VITAE    NOT AVBL
EAGLE RIVER    NOT AVBL
LAND O LAKES   NOT AVBL
RHINELANDER    LGT SNOW  27  23  85 S9        30.26F FOG
PHILLIPS       CLOUDY    28  22  77 SE12G18   30.20F
ANTIGO         NOT AVBL
TOMAHAWK       NOT AVBL
MERRILL        NOT AVBL
$$

WIZ013-073-231500-
NORTHEAST WISCONSIN

CITY           SKY/WX    TMP DP  RH WIND       PRES   REMARKS
IRON MOUNTAIN  CLOUDY    26  17  68 S9        30.33F
MARINETTE        N/A    N/A N/A N/A MISG        N/A
$$

WIZ017-030-035>037-045-231500-
CENTRAL WISCONSIN

CITY           SKY/WX    TMP DP  RH WIND       PRES   REMARKS
MEDFORD        NOT AVBL
WAUSAU         CLOUDY    28  18  66 SE10      30.28F
MOSINEE        NOT AVBL
MARSHFIELD     CLOUDY    30  18  60 SE13      30.24F
WISC RAPIDS    CLOUDY    30  21  69 SE10      30.30F
STEVENS POINT  NOT AVBL
WAUPACA        NOT AVBL
SHAWANO        CLOUDY    31  23  73 CALM      30.37F
CLINTONVILLE   CLOUDY    30  23  74 S8        30.35F
WAUTOMA        CLOUDY    31  24  75 SE6       30.33
$$

WIZ038-039-048-051-231500-
FOX VALLEY

CITY           SKY/WX    TMP DP  RH WIND       PRES   REMARKS
NWS GREEN BAY  CLOUDY    33  28  81 S10       30.37F
APPLETON       CLOUDY    32  23  69 SE10      30.34F
OSHKOSH        CLOUDY    32  23  69 S9        30.35F
FOND DU LAC    CLOUDY    33  22  63 S15       30.35F
$$

WIZ022-050-052-231500-
EAST CENTRAL WISCONSIN

CITY           SKY/WX    TMP DP  RH WIND       PRES   REMARKS
EPHRAIM        NOT AVBL
WASHINGTON ISL NOT AVBL
STURGEON BAY   CLOUDY    34  26  72 S10       30.39F
MANITOWOC      NOT AVBL
SHEBOYGAN      CLOUDY    34  25  69 S9        30.39F
$$

LMZ563-521-522-541>543-231500-
LAKESHORE

STATION/POSITION TIME  TEMP    WIND        PRES    VSBY  WAVE
                       AIR SEA DIR/SP/G                  HT/PER
                 (UTC) (F)     (DEG/KT/KT) (MB)    (MI)  (FT/S)
SHEBOYGAN LKSHOR 1300   35     180/ 17/ 18 1030.5F
KEWAUNEE LKSHORE 1330   34     180/ 13/ 15 1029.2F
NORTHPORT PIER   1340   33     170/  2/  7 1029.5S
SISTER BAY LKSHO 1321   33     170/ 11/ 15   N/A
CHAMBERS ISLAND  1330   30     160/  3/  5 1028.8F
MENOMINEE LKSHOR 1330   30     170/  8/ 11 1028.5S
$$




USA.gov is the U.S. government's official web portal to all federal, state and local government web resources and services.